[[{"header":{"parameterUnit":"m.s-1","parameterCategory":1,"la1":30.2991,"la2":30.254,"lo1":-89.0895,"lo2":-89.0444,"dy":0.0017,"dx":0.0017,"nx":28,"ny":28,"refTime":"2025-11-28T03:00:00:Z","depth":0,"parameterNumber":2,"parameterNumberName":"U-component_of_WINDS"},"data":[0,0,0,0,0,0,0,0,0,0,0,0,0,0,0,0,0,0,0,0,0,0,0,0,0,0,0,0,0,0,0,0,0,0,0,0,0,0,0,0,0,0,0,0,0,0,0,0,0,0,0,0,0,0,0,0,0,0,0.8588,0.8588,0,0.8587,0.8587,0.8587,0.8596,0.8596,0.8596,0.8597,0.8594,0.8593,0.8593,0,0,0,0,0,0,0,0,0,0,0,0,0,0.8599,0.8599,0.8588,0.8588,0.8588,0.8587,0.8587,0.8587,0.8596,0.8596,0.8597,0.8597,0.8594,0.8593,0.8593,0,0,0,0,0,0,0,0,0,0,0,0,0,0.8596,0.8599,0.8588,0.8593,0.8593,0.8587,0.8587,0.8587,0.8596,0.8596,0.8597,0.8597,0.8594,0.8593,0.8593,0.8582,0,0,0.8591,0.8591,0,0,0,0,0,0,0,0,0.8596,0.8595,0.8592,0.8592,0.8593,0.8592,0.8589,0.8585,0.8596,0.8595,0.8597,0.8597,0.8593,0.8592,0.8591,0.8582,0.8581,0.8591,0.8591,0.8591,0.8591,0,0,0,0,0,0,0,0.8596,0.8595,0.8588,0.8592,0.8592,0.8595,0.8595,0.8589,0.8591,0.8595,0.8596,0.8595,0.8593,0.8591,0.8591,0.8581,0.8591,0.8591,0.8591,0.859,0.8564,0.8564,0,0,0,0,0,0,0.8596,0.8595,0.8588,0.8588,0.8595,0.8594,0.8594,0.8592,0.8592,0.8592,0.8595,0.8596,0.8592,0.8592,0.8591,0.8579,0.8591,0.859,0.859,0.8565,0.8564,0.8564,0,0,0,0,0,0,0.8596,0.8595,0.8588,0.8592,0.8591,0.8594,0.8591,0.8592,0.859,0.8592,0.8592,0.8593,0.8592,0.8592,0.8584,0.8579,0.859,0.859,0.8565,0.8565,0.8564,0.8553,0,0,0,0,0,0,0.8596,0.8595,0.8591,0.8592,0.8591,0.8581,0.8591,0.8591,0.8589,0.859,0.859,0.859,0.8593,0.8585,0.8584,0.8578,0.8589,0.8566,0.8565,0.8564,0.8554,0.8552,0.8551,0,0,0,0,0,0.8597,0.8587,0.859,0.8589,0.8585,0.8581,0.858,0.8584,0.8589,0.8585,0.8586,0.859,0.858,0.8584,0.8583,0.8577,0.8566,0.8565,0.8564,0.8555,0.8553,0.8551,0,0,0,0,0,0,0.8584,0.8587,0.8591,0.8581,0.8581,0.8582,0.8577,0.8581,0.8579,0.858,0.8584,0.8584,0.8576,0.8576,0.8581,0.8567,0.8574,0.8573,0.8567,0.8565,0.8563,0.8563,0.8589,0,0,0,0,0,0.8581,0.8577,0.858,0.8571,0.8571,0.8574,0.8572,0.8575,0.8574,0.8574,0.8575,0.8574,0.857,0.8568,0.8565,0.8555,0.8555,0.855,0.8548,0.8547,0.8546,0.8541,0.8539,0.8561,0.8561,0.8561,0,0,0.8572,0.8574,0.8571,0.8569,0.8568,0.8565,0.8573,0.8569,0.8566,0.8573,0.8566,0.8567,0.8566,0.8558,0.8554,0.8558,0.854,0.8546,0.8545,0.8544,0.854,0.8538,0.8536,0.856,0.856,0.8561,0,0,0.8556,0.8556,0.855,0.855,0.855,0.8553,0.8552,0.8553,0.8554,0.8548,0.8553,0.855,0.8544,0.8544,0.8543,0.8528,0.8532,0.8527,0.8518,0.8514,0.8512,0.8511,0.8506,0.8504,0.8526,0.8526,0.8526,0,0.8546,0.854,0.8546,0.8541,0.854,0.8548,0.8541,0.8541,0.854,0.8539,0.8544,0.8537,0.8537,0.8529,0.8526,0.8525,0.8523,0.8527,0.8512,0.8511,0.8509,0.8505,0.8503,0.8525,0.8525,0.8526,0.8526,0,0.8528,0.8524,0.8518,0.8518,0.8517,0.8511,0.8516,0.8514,0.8518,0.852,0.8515,0.8515,0.8513,0.8512,0.8515,0.8504,0.8507,0.8512,0.8518,0.8507,0.8502,0.8501,0.8525,0.8525,0.8525,0.8525,0,0,0.8501,0.8506,0.8504,0.8504,0.8506,0.8504,0.8499,0.8497,0.8496,0.8496,0.8492,0.8488,0.8493,0.8491,0.8495,0.8491,0.8481,0.8497,0.8497,0.8494,0.847,0.8466,0.8464,0.8484,0.8484,0.8483,0.847,0,0.8485,0.8477,0.8483,0.8474,0.8471,0.848,0.8476,0.8476,0.8479,0.8477,0.848,0.8477,0.8484,0.8483,0.848,0.8483,0.8476,0.8484,0.848,0.848,0.8479,0.8462,0.8457,0.8444,0.8469,0.8468,0.8468,0,0.8464,0.8464,0.8455,0.8459,0.8458,0.8454,0.8455,0.8452,0.8454,0.8456,0.8456,0.8462,0.8458,0.8465,0.846,0.8465,0.8465,0.8466,0.8466,0.8464,0.8473,0.846,0.844,0.8438,0.8465,0.8466,0.8466,0,0.8446,0.8444,0.8438,0.8439,0.8443,0.844,0.8442,0.8444,0.8444,0.8444,0.8444,0.8443,0.8443,0.8442,0.8448,0.8453,0.8442,0.845,0.8444,0.8443,0.844,0.844,0.8419,0.844,0.844,0.844,0.8441,0,0.8426,0.8421,0.843,0.8427,0.8421,0.8428,0.8422,0.8425,0.8427,0.8425,0.8432,0.843,0.8437,0.8435,0.844,0.8435,0.8435,0.8437,0.8437,0.8435,0.8435,0.8434,0.8435,0.844,0.844,0.844,0.844,0,0.8404,0.841,0.8405,0.8411,0.8412,0.8407,0.8412,0.8409,0.8414,0.841,0.841,0.8416,0.8415,0.8421,0.842,0.8423,0.8416,0.8419,0.8415,0.8416,0.8409,0.841,0.8387,0.8385,0.8408,0.8407,0.8407,0,0.8391,0.8387,0.8393,0.8392,0.8393,0.8392,0.8392,0.84,0.8399,0.8402,0.8399,0.8399,0.8399,0.8396,0.8401,0.8401,0.8403,0.8396,0.8403,0.8402,0.8403,0.8403,0.8403,0.8393,0.8393,0.8393,0.8393,0,0.8367,0.8371,0.837,0.8372,0.8372,0.8373,0.8374,0.8373,0.8382,0.8381,0.838,0.838,0.8381,0.838,0.8382,0.8384,0.839,0.8391,0.8389,0.8386,0.8385,0.8385,0.841,0.8391,0.8391,0.8391,0.8391,0.8391,0.8349,0.8346,0.835,0.835,0.8352,0.8354,0.8352,0.8357,0.8356,0.8357,0.8362,0.8361,0.8364,0.8367,0.8369,0.8368,0.8372,0.8369,0.8369,0.8368,0.8367,0.8386,0.8368,0.8368,0.8368,0.8369,0.8369,0,0.8325,0.8328,0.8328,0.8331,0.8331,0.8338,0.8341,0.834,0.8339,0.8342,0.8343,0.8343,0.8343,0.8348,0.8349,0.8348,0.8351,0.8348,0.8347,0.8348,0.8363,0.8365,0.8345,0.8345,0.8346,0.8346,0.8346,0.8346,0.8312,0.8308,0.8313,0.8311,0.8314,0.8313,0.8314,0.8316,0.8319,0.8319,0.8319,0.8323,0.8328,0.8329,0.833,0.8332,0.8332,0.8328,0.833,0.8345,0.8347,0.8349,0.835,0.8328,0.8328,0.8315,0.8315,0.8315]},{"header":{"parameterUnit":"m.s-1","parameterCategory":1,"la1":30.2991,"la2":30.254,"lo1":-89.0895,"lo2":-89.0444,"dy":0.0017,"dx":0.0017,"nx":28,"ny":28,"refTime":"2025-11-28T03:00:00:Z","depth":0,"parameterNumber":3,"parameterNumberName":"V-component_of_WINDS"},"data":[0,0,0,0,0,0,0,0,0,0,0,0,0,0,0,0,0,0,0,0,0,0,0,0,0,0,0,0,0,0,0,0,0,0,0,0,0,0,0,0,0,0,0,0,0,0,0,0,0,0,0,0,0,0,0,0,0,0,-6.7646,-6.7647,0,-6.7775,-6.7777,-6.7778,-6.7657,-6.7652,-6.7647,-6.7643,-6.777,-6.7777,-6.7785,0,0,0,0,0,0,0,0,0,0,0,0,0,-6.7288,-6.7295,-6.7646,-6.7647,-6.7649,-6.7775,-6.7777,-6.7779,-6.7658,-6.7652,-6.7646,-6.7641,-6.7767,-6.7776,-6.7786,0,0,0,0,0,0,0,0,0,0,0,0,0,-6.7433,-6.7297,-6.7645,-6.7604,-6.7602,-6.7775,-6.7777,-6.7779,-6.7659,-6.7652,-6.7645,-6.7638,-6.7764,-6.7776,-6.7787,-6.8006,0,0,-6.7823,-6.7829,0,0,0,0,0,0,0,0,-6.7425,-6.7446,-6.7609,-6.7607,-6.7605,-6.7693,-6.7697,-6.7855,-6.7661,-6.7637,-6.7643,-6.7634,-6.775,-6.7762,-6.7802,-6.8012,-6.8017,-6.7824,-6.7832,-6.7837,-6.784,0,0,0,0,0,0,0,-6.7415,-6.744,-6.7697,-6.7611,-6.7609,-6.7577,-6.759,-6.7726,-6.7732,-6.7639,-6.763,-6.7648,-6.7747,-6.7791,-6.7804,-6.8019,-6.7824,-6.7835,-6.7842,-6.7847,-6.8414,-6.8422,0,0,0,0,0,0,-6.741,-6.7432,-6.7693,-6.7701,-6.7495,-6.759,-6.7604,-6.7672,-6.7731,-6.7733,-6.7654,-6.7641,-6.7774,-6.7791,-6.7808,-6.8068,-6.7837,-6.7848,-6.7855,-6.8406,-6.8416,-6.8424,0,0,0,0,0,0,-6.7403,-6.7434,-6.7687,-6.7564,-6.7594,-6.7603,-6.7681,-6.7678,-6.7722,-6.7742,-6.7742,-6.7698,-6.7769,-6.7792,-6.7958,-6.8071,-6.7853,-6.7864,-6.8397,-6.8409,-6.842,-6.859,0,0,0,0,0,0,-6.7393,-6.7433,-6.7517,-6.7567,-6.7601,-6.7837,-6.7688,-6.7686,-6.7744,-6.7729,-6.7784,-6.7786,-6.7765,-6.7941,-6.797,-6.8083,-6.7873,-6.8387,-6.8402,-6.8416,-6.8575,-6.8607,-6.8634,0,0,0,0,0,-6.7381,-6.7559,-6.7522,-6.7554,-6.7708,-6.7844,-6.7863,-6.7838,-6.7753,-6.7837,-6.785,-6.7784,-6.8054,-6.7959,-6.7991,-6.8109,-6.8379,-6.8398,-6.8415,-6.8561,-6.86,-6.8633,0,0,0,0,0,0,-6.7519,-6.7564,-6.7524,-6.7724,-6.7782,-6.7823,-6.7929,-6.788,-6.7961,-6.7944,-6.7907,-6.7921,-6.8097,-6.8119,-6.8013,-6.8324,-6.8203,-6.8228,-6.8303,-6.834,-6.8369,-6.836,-6.7883,0,0,0,0,0,-6.7574,-6.7683,-6.7715,-6.7888,-6.7919,-6.792,-6.7978,-6.7954,-6.8011,-6.8034,-6.8059,-6.8115,-6.8212,-6.8277,-6.8368,-6.8577,-6.8587,-6.8674,-6.8704,-6.8728,-6.875,-6.8862,-6.8901,-6.8483,-6.8483,-6.8483,0,0,-6.7686,-6.7724,-6.7795,-6.7917,-6.7959,-6.8071,-6.7941,-6.8065,-6.8147,-6.8052,-6.8212,-6.8232,-6.8292,-6.8481,-6.8565,-6.8505,-6.8868,-6.8751,-6.877,-6.8779,-6.8884,-6.8924,-6.8959,-6.8496,-6.8493,-6.8491,0,0,-6.7948,-6.7989,-6.8137,-6.8182,-6.8248,-6.8247,-6.8283,-6.8333,-6.8343,-6.8503,-6.8434,-6.853,-6.8699,-6.8745,-6.879,-6.9071,-6.9012,-6.9101,-6.9256,-6.9365,-6.9398,-6.9427,-6.9527,-6.9563,-6.9123,-6.9123,-6.9124,0,-6.8079,-6.8248,-6.8219,-6.835,-6.8405,-6.8326,-6.8476,-6.852,-6.8611,-6.865,-6.8582,-6.8792,-6.8827,-6.9026,-6.9094,-6.9134,-6.9172,-6.9095,-6.9396,-6.9425,-6.9452,-6.9546,-6.9584,-6.9134,-6.9132,-6.9131,-6.913,0,-6.8405,-6.8523,-6.8635,-6.8728,-6.8795,-6.8934,-6.8926,-6.8997,-6.8967,-6.8973,-6.9136,-6.9176,-6.9273,-6.9318,-6.9289,-6.9513,-6.9474,-6.9402,-6.9279,-6.9502,-6.9591,-6.9627,-6.9149,-6.9145,-6.9142,-6.9139,0,0,-6.8758,-6.8835,-6.8876,-6.8917,-6.8984,-6.9073,-6.9208,-6.9305,-6.9367,-6.9433,-6.9544,-6.9689,-6.9623,-6.9675,-6.965,-6.9746,-6.9966,-6.9662,-6.9663,-6.9717,-7.0214,-7.0268,-7.0311,-6.9928,-6.9935,-6.994,-7.0209,0,-6.9023,-6.926,-6.9239,-6.9462,-6.957,-6.9497,-6.9614,-6.9667,-6.9676,-6.9767,-6.9776,-6.988,-6.9785,-6.9816,-6.9908,-6.992,-7.0065,-6.99,-7.003,-7.0035,-7.0017,-7.0357,-7.0415,-7.0667,-7.0244,-7.0249,-7.0254,0,-6.9364,-6.9444,-6.9679,-6.973,-6.9774,-6.988,-6.9968,-7.0056,-7.0114,-7.0113,-7.0172,-7.0131,-7.0265,-7.014,-7.0323,-7.0212,-7.0263,-7.0277,-7.0286,-7.0297,-7.0158,-7.0377,-7.0747,-7.0785,-7.0308,-7.0303,-7.03,0,-6.9598,-6.9764,-6.9926,-6.9963,-7.0027,-7.0103,-7.0132,-7.0183,-7.0243,-7.0319,-7.0357,-7.0447,-7.0496,-7.0565,-7.0549,-7.046,-7.0736,-7.061,-7.0739,-7.0739,-7.08,-7.0796,-7.1183,-7.0834,-7.0833,-7.0832,-7.0832,0,-6.9896,-7.0043,-7.0032,-7.0132,-7.0294,-7.0267,-7.0428,-7.0447,-7.0493,-7.0594,-7.0535,-7.0631,-7.0604,-7.0698,-7.0685,-7.0839,-7.0861,-7.0863,-7.0858,-7.0869,-7.0869,-7.0902,-7.0884,-7.0842,-7.084,-7.0838,-7.0837,0,-7.0185,-7.0184,-7.0356,-7.0403,-7.0417,-7.0535,-7.0573,-7.0666,-7.0671,-7.08,-7.0828,-7.0835,-7.0942,-7.0933,-7.1053,-7.1045,-7.1235,-7.1209,-7.1217,-7.1211,-7.134,-7.1328,-7.1762,-7.1817,-7.1432,-7.1436,-7.1439,0,-7.0375,-7.0487,-7.0546,-7.061,-7.0646,-7.075,-7.0812,-7.0789,-7.0855,-7.093,-7.1014,-7.1117,-7.1198,-7.1373,-7.1387,-7.1478,-7.1454,-7.16,-7.1467,-7.1474,-7.1456,-7.145,-7.1461,-7.1626,-7.163,-7.1633,-7.1636,0,-7.0713,-7.0707,-7.0799,-7.0893,-7.0968,-7.1039,-7.1104,-7.116,-7.1143,-7.122,-7.1331,-7.1394,-7.1518,-7.162,-7.1708,-7.1735,-7.1684,-7.1678,-7.1713,-7.1725,-7.1725,-7.1727,-7.1288,-7.1668,-7.1665,-7.1663,-7.1661,-7.166,-7.0958,-7.1054,-7.1111,-7.1216,-7.1263,-7.1325,-7.1415,-7.1432,-7.1524,-7.1625,-7.1605,-7.173,-7.1783,-7.1895,-7.1932,-7.2027,-7.1974,-7.2025,-7.2037,-7.205,-7.2065,-7.171,-7.2043,-7.2042,-7.2041,-7.204,-7.204,0,-7.1293,-7.1327,-7.1423,-7.1517,-7.1599,-7.1545,-7.1614,-7.1686,-7.1797,-7.1852,-7.1934,-7.2061,-7.216,-7.2183,-7.2277,-7.2349,-7.2328,-7.2375,-7.2369,-7.2376,-7.2107,-7.2068,-7.2391,-7.239,-7.239,-7.239,-7.239,-7.239,-7.1477,-7.1637,-7.1638,-7.182,-7.1851,-7.1975,-7.2019,-7.2075,-7.2119,-7.2265,-7.2348,-7.2362,-7.2404,-7.2502,-7.259,-7.2593,-7.2631,-7.2688,-7.2682,-7.243,-7.2395,-7.2362,-7.2325,-7.2696,-7.2696,-7.2943,-7.2945,-7.2947]}]]